Location: Casa Rossa
(45.2389°N, 12.2056°E)
Time: 23:08:22
(UTC+00:00)

Okean 1-7 - Pass Details

Date: 14 July 2020
Orbit: 591 x 618 km, 82.5° (Epoch: 14 August)

Event Time Altitude Azimuth Distance (km) Brightness Sun altitude
Rises 01:12:27 0° 342° (NNW) 2,904 7.2 -18.2°
Reaches altitude 10° 01:14:49 10° 334° (NNW) 1,993 6.1 -18.0°
Maximum altitude 01:18:49 35° 269° (W) 1,013 3.9 -17.6°
Enters shadow 01:19:47 31° 242° (WSW) 1,093 3.9 -17.5°
